User: anonymous   Login
Location: Unspecified
(0.0000°N, 0.0000°E)
Time: 03:00:16
(UTC+00:00)
Language:

IGS RADAR-5 - Orbit

View from above orbital plane
View from above orbital plane
View from above satellite
View from above satellite

Ground track
Ground track

The orbit data is extracted from the following two-line orbital elements,

1 42072U 17015A   17267.86208787 0.00000000  00000-0  00000-0 0    01
2 42072  97.3718 337.7375 0003000 103.6866 256.3133 15.25982500    00
Epoch (UTC): 24 September 2017 20:41:24
Eccentricity: 0.0003000
inclination: 97.3718°
perigee height: 486 km
apogee height: 490 km
right ascension of ascending node: 337.7375°
argument of perigee: 103.6866°
revolutions per day: 15.25982500
mean anomaly at epoch: 256.3133°
orbit number at epoch: 0

The dashed part of the orbit path shows where the satellite is in the earth's shadow,  

DLR